Startpagina
METAR-TAF:

METAR-TAF

Vliegvelden :

Shell, Ecuador

breedte: 01-30-19S, lengte: 078-03-46W, hoogte: 1056 m

Actueel weer

Dit bericht is 1 uur en het 14 minuten geleden gemaakt, om 13:00 UTC
Wind 6 kt uit het noordnoordwesten, variërend tussen het westnoordwesten en het noorden
Temperatuur 23°C
Vochtigheid 78%
Druk 1017 hPa
Zicht 10 km of meer
Verspreide wolken op 3000 ft
Gebroken wolken op 10000 ft

METAR: SESM 261300Z 33006KT 300V360 9999 SCT030 BKN100 23/19 Q1017 RMK A3004

Tijdstip: 09:14 (14:14 UTC)


TAF: ontbreekt

Waarnemingen en weersverwachtingen van meer dan 4000 vliegvelden (METAR en TAF).

De beschikbare stations zijn de gele en rode punten op de kaart.

Ga met uw muis naar het station om de naam te zien.

Klik dan om waarnemingen en weersverwachtingen te zien.

kaart wijzigen: klik op de groene knoppen met een zwart kruis om in te zoomen, op de groene knop met een streepje om uit te zoomen of op de groene pijlen voor aangrenzende kaarten.


METAR-TAF: